RA2948 UWUU-UWUU

Flight info

Callsign RA2948
Flight time 0h 31m
Altitude 2500
Route 5434N05555E DCT 5435N05554E DCT 5439N05556E DCT 5444N05559E DCT 5447N05557E DCT 5453N05542E DCT 5447N05540E DCT 5443N05558E DCT 5437N05552E
Aircraft C172/L-SFG/C

Departure

Time 2026-04-29 13:12
Airport Ufa International Airport (UWUU)

Arrival

Time 2026-04-29 13:43
Airport Ufa International Airport (UWUU)
Time Latitude Longitude Altitude Speed Heading
2026-04-29 13:03 54.56456 55.88058 444 ft 0 kts 240°
2026-04-29 13:05 54.56487 55.88140 445 ft 378 kts 236°
2026-04-29 13:05 54.56491 55.88149 444 ft 0 kts 236°
2026-04-29 13:06 54.56459 55.88067 444 ft 0 kts 236°
2026-04-29 13:07 54.56492 55.88152 444 ft 2 kts 235°
2026-04-29 13:08 54.56435 55.88169 445 ft 15 kts 209°
2026-04-29 13:08 54.56372 55.88014 445 ft 16 kts 240°
2026-04-29 13:08 54.56293 55.87769 434 ft 22 kts 242°
2026-04-29 13:08 54.56230 55.87575 444 ft 15 kts 244°
2026-04-29 13:09 54.56187 55.87452 444 ft 9 kts 238°
2026-04-29 13:09 54.56161 55.87378 438 ft 5 kts 239°
2026-04-29 13:09 54.56137 55.87300 444 ft 12 kts 243°
2026-04-29 13:09 54.56078 55.87118 444 ft 20 kts 240°
2026-04-29 13:10 54.55994 55.86866 444 ft 27 kts 236°
2026-04-29 13:10 54.55903 55.86586 445 ft 27 kts 242°
2026-04-29 13:10 54.55827 55.86387 445 ft 15 kts 198°
2026-04-29 13:10 54.55715 55.86475 444 ft 33 kts 152°
2026-04-29 13:11 54.55365 55.86798 474 ft 74 kts 156°
2026-04-29 13:11 54.54886 55.87334 582 ft 91 kts 149°
2026-04-29 13:11 54.54347 55.87916 820 ft 91 kts 154°
2026-04-29 13:11 54.53826 55.88521 1032 ft 92 kts 157°
2026-04-29 13:12 54.53273 55.89086 1199 ft 94 kts 158°
2026-04-29 13:12 54.52813 55.89547 1305 ft 98 kts 156°
2026-04-29 13:15 54.52320 55.90425 1353 ft 118 kts 116°
2026-04-29 13:15 54.52312 55.91829 1541 ft 115 kts 88°
2026-04-29 13:15 54.52573 55.93181 1605 ft 127 kts 54°
2026-04-29 13:15 54.53227 55.94196 1740 ft 123 kts 30°
2026-04-29 13:16 54.54022 55.94530 1744 ft 116 kts 335°
2026-04-29 13:16 54.54677 55.93945 1848 ft 106 kts 315°
2026-04-29 13:16 54.55258 55.93241 1962 ft 99 kts 302°
2026-04-29 13:16 54.55798 55.92468 2062 ft 104 kts 310°
2026-04-29 13:17 54.56453 55.91835 2163 ft 110 kts 317°
2026-04-29 13:17 54.57051 55.91110 2296 ft 103 kts 309°
2026-04-29 13:17 54.57635 55.90344 2352 ft 105 kts 308°
2026-04-29 13:17 54.58325 55.89816 2443 ft 119 kts 344°
2026-04-29 13:18 54.59177 55.90159 2423 ft 135 kts 17°
2026-04-29 13:18 54.60025 55.90744 2499 ft 127 kts 13°
2026-04-29 13:18 54.60861 55.91168 2495 ft 125 kts
2026-04-29 13:18 54.61698 55.91398 2565 ft 118 kts 352°
2026-04-29 13:19 54.62537 55.91445 2538 ft 124 kts 354°
2026-04-29 13:19 54.63407 55.91663 2516 ft 129 kts
2026-04-29 13:19 54.64254 55.92132 2545 ft 128 kts 13°
2026-04-29 13:19 54.65077 55.92687 2579 ft 125 kts 13°
2026-04-29 13:20 54.65927 55.93178 2467 ft 133 kts
2026-04-29 13:20 54.66819 55.93636 2453 ft 129 kts
2026-04-29 13:20 54.67654 55.94039 2478 ft 128 kts
2026-04-29 13:20 54.68514 55.94422 2532 ft 127 kts
2026-04-29 13:21 54.69365 55.94960 2484 ft 132 kts 16°
2026-04-29 13:21 54.70217 55.95587 2458 ft 133 kts 15°
2026-04-29 13:21 54.71072 55.96179 2408 ft 134 kts 14°
2026-04-29 13:21 54.71974 55.96753 2228 ft 141 kts 14°
2026-04-29 13:22 54.72890 55.97248 2221 ft 128 kts 359°
2026-04-29 13:22 54.73761 55.97292 2218 ft 125 kts 347°
2026-04-29 13:22 54.74580 55.97143 2294 ft 116 kts 340°
2026-04-29 13:22 54.75359 55.96884 2363 ft 112 kts 331°
2026-04-29 13:23 54.76063 55.96404 2428 ft 105 kts 318°
2026-04-29 13:23 54.76696 55.95745 2461 ft 105 kts 316°
2026-04-29 13:23 54.77323 55.95100 2541 ft 104 kts 315°
2026-04-29 13:23 54.77886 55.94344 2530 ft 102 kts 304°
2026-04-29 13:24 54.78385 55.93505 2541 ft 98 kts 299°
2026-04-29 13:24 54.78812 55.92599 2506 ft 96 kts 293°
2026-04-29 13:24 54.79188 55.91666 2497 ft 94 kts 293°
2026-04-29 13:24 54.79540 55.90728 2470 ft 92 kts 290°
2026-04-29 13:25 54.79864 55.89781 2434 ft 92 kts 289°
2026-04-29 13:25 54.80456 55.87792 2388 ft 90 kts 281°
2026-04-29 13:25 54.80721 55.86786 2396 ft 92 kts 287°
2026-04-29 13:26 54.81058 55.85842 2430 ft 93 kts 290°
2026-04-29 13:26 54.81399 55.84881 2442 ft 93 kts 287°
2026-04-29 13:26 54.81663 55.83863 2391 ft 94 kts 281°
2026-04-29 13:26 54.81925 55.82833 2379 ft 94 kts 286°
2026-04-29 13:27 54.82350 55.81909 2335 ft 102 kts 302°
2026-04-29 13:27 54.82842 55.81051 2374 ft 98 kts 300°
2026-04-29 13:27 54.83278 55.80131 2342 ft 100 kts 296°
2026-04-29 13:27 54.83678 55.79195 2388 ft 94 kts 293°
2026-04-29 13:28 54.84028 55.78239 2348 ft 96 kts 290°
2026-04-29 13:28 54.84343 55.77266 2381 ft 93 kts 289°
2026-04-29 13:28 54.84782 55.76361 2364 ft 99 kts 303°
2026-04-29 13:28 54.85228 55.75489 2379 ft 95 kts 290°
2026-04-29 13:29 54.85360 55.74452 2393 ft 85 kts 257°
2026-04-29 13:29 54.85065 55.73586 2367 ft 87 kts 227°
2026-04-29 13:29 54.84603 55.72929 2351 ft 87 kts 217°
2026-04-29 13:29 54.84097 55.72366 2356 ft 85 kts 219°
2026-04-29 13:30 54.83643 55.71723 2386 ft 83 kts 225°
2026-04-29 13:30 54.83222 55.71048 2443 ft 82 kts 223°
2026-04-29 13:30 54.82760 55.70445 2464 ft 84 kts 217°
2026-04-29 13:30 54.82251 55.69956 2510 ft 85 kts 211°
2026-04-29 13:31 54.81694 55.69581 2566 ft 87 kts 205°
2026-04-29 13:31 54.81134 55.69236 2598 ft 86 kts 208°
2026-04-29 13:31 54.80561 55.68885 2602 ft 89 kts 202°
2026-04-29 13:31 54.79938 55.68674 2581 ft 92 kts 200°
2026-04-29 13:32 54.79326 55.68448 2548 ft 93 kts 197°
2026-04-29 13:32 54.78660 55.68563 2477 ft 100 kts 175°
2026-04-29 13:32 54.78008 55.68993 2466 ft 100 kts 164°
2026-04-29 13:32 54.77452 55.69811 2431 ft 110 kts 137°
2026-04-29 13:33 54.77090 55.70986 2435 ft 114 kts 126°
2026-04-29 13:33 54.76767 55.72225 2479 ft 114 kts 121°
2026-04-29 13:33 54.76530 55.73558 2437 ft 118 kts 113°
2026-04-29 13:33 54.76345 55.74944 2443 ft 119 kts 110°
2026-04-29 13:34 54.76175 55.76354 2465 ft 118 kts 110°
2026-04-29 13:34 54.76021 55.77746 2479 ft 119 kts 111°
2026-04-29 13:34 54.75802 55.79120 2501 ft 118 kts 114°
2026-04-29 13:34 54.75496 55.80409 2491 ft 113 kts 132°
2026-04-29 13:35 54.74947 55.81280 2434 ft 103 kts 163°
2026-04-29 13:35 54.74285 55.81648 2382 ft 96 kts 181°
2026-04-29 13:35 54.73619 55.81788 2298 ft 98 kts 182°
2026-04-29 13:35 54.72973 55.81986 2344 ft 93 kts 177°
2026-04-29 13:36 54.72337 55.82244 2321 ft 94 kts 179°
2026-04-29 13:36 54.71707 55.82471 2301 ft 96 kts 179°
2026-04-29 13:36 54.71030 55.82731 2195 ft 102 kts 176°
2026-04-29 13:36 54.70349 55.82979 2155 ft 99 kts 180°
2026-04-29 13:37 54.69667 55.83163 2102 ft 99 kts 183°
2026-04-29 13:37 54.68979 55.83233 2020 ft 98 kts 186°
2026-04-29 13:37 54.68292 55.83268 1906 ft 102 kts 187°
2026-04-29 13:37 54.67592 55.83283 1819 ft 101 kts 187°
2026-04-29 13:38 54.66885 55.83286 1709 ft 104 kts 189°
2026-04-29 13:38 54.66161 55.83257 1592 ft 107 kts 191°
2026-04-29 13:38 54.65427 55.83186 1478 ft 104 kts 193°
2026-04-29 13:38 54.64721 55.83037 1423 ft 100 kts 192°
2026-04-29 13:39 54.64048 55.82973 1352 ft 95 kts 186°
2026-04-29 13:39 54.63406 55.82956 1290 ft 94 kts 187°
2026-04-29 13:39 54.62751 55.82933 1186 ft 90 kts 189°
2026-04-29 13:39 54.62155 55.82945 1094 ft 78 kts 188°
2026-04-29 13:40 54.61616 55.83001 969 ft 77 kts 185°
2026-04-29 13:40 54.61101 55.83209 921 ft 80 kts 177°
2026-04-29 13:40 54.60511 55.83399 959 ft 88 kts 180°
2026-04-29 13:40 54.59917 55.83616 992 ft 86 kts 178°
2026-04-29 13:41 54.59368 55.83706 988 ft 73 kts 189°
2026-04-29 13:41 54.58917 55.83739 917 ft 64 kts 189°
2026-04-29 13:41 54.58470 55.83890 813 ft 63 kts 176°
2026-04-29 13:41 54.58068 55.84200 713 ft 62 kts 165°
2026-04-29 13:42 54.57666 55.84540 644 ft 68 kts 157°
2026-04-29 13:42 54.57251 55.85010 559 ft 73 kts 156°
2026-04-29 13:42 54.56821 55.85437 467 ft 68 kts 161°
2026-04-29 13:42 54.56421 55.85787 449 ft 62 kts 159°
2026-04-29 13:43 54.56127 55.86063 448 ft 32 kts 140°
2026-04-29 13:43 54.55943 55.86253 447 ft 34 kts 150°
2026-04-29 13:43 54.55856 55.86439 446 ft 11 kts 66°
2026-04-29 13:43 54.55908 55.86598 437 ft 19 kts 58°
2026-04-29 13:44 54.55971 55.86788 438 ft 20 kts 57°
2026-04-29 13:44 54.56061 55.87059 437 ft 30 kts 59°
2026-04-29 13:44 54.56154 55.87351 444 ft 26 kts 56°
2026-04-29 13:44 54.56239 55.87611 444 ft 24 kts 60°
2026-04-29 13:45 54.56318 55.87843 446 ft 21 kts 64°
2026-04-29 13:45 54.56388 55.88064 445 ft 21 kts 65°
2026-04-29 13:45 54.56462 55.88164 444 ft 13 kts 342°
2026-04-29 13:45 54.56456 55.88061 440 ft 0 kts 240°